This is the latest recevied weather packets stored in our database for station/object LZ1NAG-10. If no packets are shown the sender has not sent any weather packets the latest 10 day(s).
| Time | Temp. | Humidity | Pressure | Rain* | Wind** | Luminosity | Snow |
|---|---|---|---|---|---|---|---|
| 1778076218 | 26.11° C | 50% | 1017.9 hPa | - | - | - | - |
| 1778075317 | 25° C | 51% | 1018 hPa | - | - | - | - |
| 1778074417 | 25.56° C | 52% | 1017.9 hPa | - | - | - | - |
| 1778073517 | 27.78° C | 51% | 1017.8 hPa | - | - | - | - |
| 1778072617 | 33.89° C | 45% | 1018.2 hPa | - | - | - | - |
| 1778071717 | 35° C | 44% | 1018.2 hPa | - | - | - | - |
| 1778070816 | 34.44° C | 45% | 1018.6 hPa | - | - | - | - |
| 1778069916 | 35° C | 44% | 1018.7 hPa | - | - | - | - |
| 1778069016 | 35° C | 44% | 1018.6 hPa | - | - | - | - |
| 1778068116 | 33.33° C | 45% | 1019.1 hPa | - | - | - | - |
| 1778067216 | 31.67° C | 46% | 1018.9 hPa | - | - | - | - |
| 1778066315 | 31.67° C | 47% | 1018.8 hPa | - | - | - | - |
| 1778065413 | 33.33° C | 45% | 1019.6 hPa | - | - | - | - |
| 1778064513 | 33.89° C | 45% | 1019.4 hPa | - | - | - | - |
| 1778063613 | 34.44° C | 43% | 1019.4 hPa | - | - | - | - |
| 1778062713 | 32.78° C | 44% | 1019.6 hPa | - | - | - | - |
| 1778061813 | 32.78° C | 44% | 1020.1 hPa | - | - | - | - |
| 1778060913 | 32.22° C | 44% | 1020.3 hPa | - | - | - | - |
| 1778060016 | 32.22° C | 44% | 1020.6 hPa | - | - | - | - |
| 1778059115 | 31.67° C | 44% | 1020.5 hPa | - | - | - | - |
| 1778058212 | 31.11° C | 44% | 1020.3 hPa | - | - | - | - |
| 1778057312 | 30.56° C | 44% | 1020.6 hPa | - | - | - | - |
| 1778056412 | 30° C | 44% | 1020.2 hPa | - | - | - | - |
| 1778055512 | 30° C | 43% | 1020.5 hPa | - | - | - | - |
| 1778054611 | 28.89° C | 43% | 1020.7 hPa | - | - | - | - |
* Rain since midnight (hover to see other rain measurements)
** Current wind speed in m/s (hover to see current wind gust speed)